,,,PA_Meas_PMT16A,,PR_Meas_QMR101_102,,RH_Meas_QMH101,,SR_Meas_QMS101,,TA_Meas_QMH101,,GenWind,,GenWind,
date,time,status,PA,status,PR,status,RH,status,SR,status,TA,status,DirAvg,status,SpdAvg,
2009-11-29, 00:00:04,VALID,1003.46,VALID,0,VALID,83.2158,VALID,0,VALID,26.7414,VALID,337,VALID,0.609766,
2009-11-29, 00:01:04,VALID,1003.47,VALID,0,VALID,83.7193,VALID,0,VALID,26.7414,VALID,336,VALID,0.639453,
2009-11-29, 00:02:04,VALID,1003.44,VALID,0,VALID,83.7575,VALID,0,VALID,26.7609,VALID,341,VALID,0.833984,
2009-11-29, 00:03:04,VALID,1003.44,VALID,0,VALID,83.7117,VALID,0,VALID,26.7609,VALID,348,VALID,0.400781,
2009-11-29, 00:04:04,VALID,1003.43,VALID,0,VALID,83.6507,VALID,0,VALID,26.7414,VALID,353,VALID,0.860937,
2009-11-29, 00:05:04,VALID,1003.44,VALID,0,VALID,83.7117,VALID,0,VALID,26.7804,VALID,1,VALID,0.790625,
2009-11-29, 00:06:04,VALID,1003.42,VALID,0,VALID,83.6812,VALID,0,VALID,26.7783,VALID,355,VALID,0.490234,
2009-11-29, 00:07:04,VALID,1003.41,VALID,0,VALID,83.5744,VALID,0,VALID,26.7998,VALID,331,VALID,0.798828,
2009-11-29, 00:08:04,VALID,1003.43,VALID,0,VALID,83.5057,VALID,0,VALID,26.8193,VALID,341,VALID,1.01602,
2009-11-29, 00:09:04,VALID,1003.41,VALID,0,VALID,83.4371,VALID,0,VALID,26.7978,VALID,1,VALID,1.17773,
2009-11-29, 00:10:04,VALID,1003.36,VALID,0,VALID,83.3837,VALID,0,VALID,26.8583,VALID,357,VALID,1.65703,
2009-11-29, 00:11:04,VALID,1003.42,VALID,0,VALID,83.1014,VALID,0,VALID,26.9167,VALID,345,VALID,0.707422,
2009-11-29, 00:12:04,VALID,1003.4,VALID,0,VALID,82.8115,VALID,0,VALID,26.9362,VALID,346,VALID,1.99102,
2009-11-29, 00:13:04,VALID,1003.4,VALID,0,VALID,82.6894,VALID,0,VALID,26.9752,VALID,347,VALID,1.38398,
2009-11-29, 00:14:04,VALID,1003.44,VALID,0,VALID,82.369,VALID,0,VALID,27.0357,VALID,343,VALID,0.900781,
2009-11-29, 00:15:04,VALID,1003.41,VALID,0,VALID,82.163,VALID,0,VALID,27.0357,VALID,344,VALID,1.47578,
2009-11-29, 00:16:04,VALID,1003.39,VALID,0,VALID,81.9723,VALID,0,VALID,27.0706,VALID,350,VALID,1.38008,
2009-11-29, 00:17:04,VALID,1003.4,VALID,0,VALID,82.041,VALID,0,VALID,27.0921,VALID,353,VALID,0.685156,
2009-11-29, 00:18:04,VALID,1003.4,VALID,0,VALID,82.0944,VALID,0,VALID,27.0942,VALID,359,VALID,1.41914,
2009-11-29, 00:19:04,VALID,1003.38,VALID,0,VALID,82.1554,VALID,0,VALID,27.0531,VALID,349,VALID,1.22969,
2009-11-29, 00:20:04,VALID,1003.39,VALID,0,VALID,82.2241,VALID,0,VALID,27.0747,VALID,349,VALID,1.49453,
2009-11-29, 00:21:04,VALID,1003.34,VALID,0,VALID,82.4301,VALID,0,VALID,27.0142,VALID,350,VALID,0.896484,
2009-11-29, 00:22:04,VALID,1003.35,VALID,0,VALID,82.4911,VALID,0,VALID,26.9557,VALID,354,VALID,1.32227,
2009-11-29, 00:23:04,VALID,1003.31,VALID,0,VALID,82.6665,VALID,0,VALID,26.9167,VALID,3,VALID,1.83164,
2009-11-29, 00:24:04,VALID,1003.31,VALID,0,VALID,82.6971,VALID,0,VALID,26.9188,VALID,334,VALID,1.0707,
2009-11-29, 00:25:04,VALID,1003.29,VALID,0,VALID,82.9183,VALID,0,VALID,26.8993,VALID,351,VALID,0.828516,
2009-11-29, 00:26:04,VALID,1003.3,VALID,0,VALID,82.9412,VALID,0,VALID,26.8388,VALID,336,VALID,0.734766,
2009-11-29, 00:27:04,VALID,1003.28,VALID,0,VALID,83.0022,VALID,0,VALID,26.8193,VALID,350,VALID,1.09063,
2009-11-29, 00:28:04,VALID,1003.3,VALID,0,VALID,83.2006,VALID,0,VALID,26.8193,VALID,348,VALID,0.435937,
2009-11-29, 00:29:04,VALID,1003.27,VALID,0,VALID,83.1853,VALID,0,VALID,26.7609,VALID,356,VALID,1.22852,
2009-11-29, 00:30:04,VALID,1003.23,VALID,0,VALID,83.3303,VALID,0,VALID,26.7414,VALID,347,VALID,0.814453,
2009-11-29, 00:31:04,VALID,1003.21,VALID,0,VALID,83.2769,VALID,0,VALID,26.7219,VALID,351,VALID,1.26211,
2009-11-29, 00:32:04,VALID,1003.21,VALID,0,VALID,83.2158,VALID,0,VALID,26.7239,VALID,5,VALID,0.771484,
2009-11-29, 00:33:04,VALID,1003.18,VALID,0,VALID,83.2235,VALID,0,VALID,26.7024,VALID,341,VALID,0.680859,
2009-11-29, 00:34:04,VALID,1003.16,VALID,0,VALID,83.1929,VALID,0,VALID,26.7219,VALID,357,VALID,1.01953,
2009-11-29, 00:35:04,VALID,1003.15,VALID,0,VALID,83.2006,VALID,0,VALID,26.7024,VALID,354,VALID,1.53906,
2009-11-29, 00:36:04,VALID,1003.13,VALID,0,VALID,82.8268,VALID,0,VALID,26.7609,VALID,354,VALID,1.74648,
2009-11-29, 00:37:04,VALID,1003.13,VALID,0,VALID,82.5216,VALID,0,VALID,26.7998,VALID,356,VALID,1.37188,
2009-11-29, 00:38:04,VALID,1003.1,VALID,0,VALID,82.3766,VALID,0,VALID,26.8583,VALID,348,VALID,1.14063,
2009-11-29, 00:39:04,VALID,1003.08,VALID,0,VALID,82.2088,VALID,0,VALID,26.8973,VALID,3,VALID,0.808984,
2009-11-29, 00:40:04,VALID,1003.07,VALID,0,VALID,82.1173,VALID,0,VALID,26.9188,VALID,346,VALID,0.782812,
2009-11-29, 00:41:04,VALID,1003.08,VALID,0,VALID,82.1936,VALID,0,VALID,26.9167,VALID,337,VALID,0.691797,
2009-11-29, 00:42:04,VALID,1003.09,VALID,0,VALID,82.102,VALID,0,VALID,26.9362,VALID,354,VALID,1.03594,
2009-11-29, 00:43:04,VALID,1003.1,VALID,0,VALID,82.1325,VALID,0,VALID,26.9557,VALID,353,VALID,1.11406,
2009-11-29, 00:44:04,VALID,1003.11,VALID,0,VALID,82.1859,VALID,0,VALID,26.9557,VALID,346,VALID,0.839453,
2009-11-29, 00:45:04,VALID,1003.1,VALID,0,VALID,82.163,VALID,0,VALID,26.9578,VALID,352,VALID,0.719141,
2009-11-29, 00:46:04,VALID,1003.07,VALID,0,VALID,82.0715,VALID,0,VALID,26.9557,VALID,347,VALID,1.45156,
2009-11-29, 00:47:04,VALID,1003.07,VALID,0,VALID,82.3461,VALID,0,VALID,26.9772,VALID,4,VALID,0.805469,
2009-11-29, 00:48:04,VALID,1003.03,VALID,0,VALID,82.3385,VALID,0,VALID,26.9362,VALID,358,VALID,0.493359,
2009-11-29, 00:49:04,VALID,1002.98,VALID,0,VALID,82.514,VALID,0,VALID,26.9188,VALID,309,VALID,0.666016,
2009-11-29, 00:50:04,VALID,1002.95,VALID,0,VALID,82.575,VALID,0,VALID,26.8778,VALID,357,VALID,1.11836,
2009-11-29, 00:51:04,VALID,1002.91,VALID,0,VALID,82.6055,VALID,0,VALID,26.8778,VALID,357,VALID,1.1918,
2009-11-29, 00:52:04,VALID,1002.89,VALID,0,VALID,82.7428,VALID,0,VALID,26.8583,VALID,355,VALID,0.928906,
2009-11-29, 00:53:04,VALID,1002.84,VALID,0,VALID,82.8496,VALID,0,VALID,26.8388,VALID,340,VALID,1.11563,
2009-11-29, 00:54:04,VALID,1002.79,VALID,0,VALID,83.0175,VALID,0,VALID,26.8408,VALID,3,VALID,0.655469,
2009-11-29, 00:55:04,VALID,1002.75,VALID,0,VALID,83.0556,VALID,0,VALID,26.7998,VALID,352,VALID,1.00469,
2009-11-29, 00:56:04,VALID,1002.71,VALID,0,VALID,83.0785,VALID,0,VALID,26.7804,VALID,354,VALID,1.30664,
2009-11-29, 00:57:04,VALID,1002.7,VALID,0,VALID,83.2921,VALID,0,VALID,26.8019,VALID,358,VALID,0.597266,
2009-11-29, 00:58:04,VALID,1002.65,VALID,0,VALID,83.2692,VALID,0,VALID,26.7609,VALID,5,VALID,0.582422,
2009-11-29, 00:59:04,VALID,1002.68,VALID,0,VALID,83.3837,VALID,0,VALID,26.7629,VALID,349,VALID,0.836328,
2009-11-29, 01:00:04,VALID,1002.67,VALID,0,VALID,83.4294,VALID,0,VALID,26.7024,VALID,2,VALID,0.913672,
2009-11-29, 01:01:04,VALID,1002.72,VALID,0,VALID,83.6202,VALID,0,VALID,26.7024,VALID,348,VALID,0.700781,
2009-11-29, 01:02:04,VALID,1002.7,VALID,0,VALID,83.5744,VALID,0,VALID,26.683,VALID,2,VALID,1.3625,
2009-11-29, 01:03:04,VALID,1002.7,VALID,0,VALID,83.6049,VALID,0,VALID,26.683,VALID,347,VALID,0.954297,
2009-11-29, 01:04:04,VALID,1002.72,VALID,0,VALID,83.5134,VALID,0,VALID,26.7024,VALID,3,VALID,1.42969,
2009-11-29, 01:05:04,VALID,1002.72,VALID,0,VALID,83.3303,VALID,0,VALID,26.7219,VALID,349,VALID,1.19102,
2009-11-29, 01:06:04,VALID,1002.69,VALID,0,VALID,83.4523,VALID,0,VALID,26.7219,VALID,358,VALID,0.885938,
2009-11-29, 01:07:04,VALID,1002.7,VALID,0,VALID,83.5362,VALID,0,VALID,26.7219,VALID,3,VALID,0.756641,
2009-11-29, 01:08:04,VALID,1002.67,VALID,0,VALID,83.4218,VALID,0,VALID,26.7219,VALID,341,VALID,1.29375,
2009-11-29, 01:09:04,VALID,1002.67,VALID,0,VALID,83.46,VALID,0,VALID,26.7024,VALID,346,VALID,1.1668,
2009-11-29, 01:10:04,VALID,1002.64,VALID,0,VALID,83.4676,VALID,0,VALID,26.7239,VALID,350,VALID,0.791016,
2009-11-29, 01:11:04,VALID,1002.63,VALID,0,VALID,83.46,VALID,0,VALID,26.7239,VALID,349,VALID,0.988672,
2009-11-29, 01:12:04,VALID,1002.62,VALID,0,VALID,83.4905,VALID,0,VALID,26.7239,VALID,350,VALID,0.793359,
2009-11-29, 01:13:04,VALID,1002.6,VALID,0,VALID,83.5744,VALID,0,VALID,26.683,VALID,350,VALID,0.919141,
2009-11-29, 01:14:04,VALID,1002.59,VALID,0,VALID,83.3455,VALID,0,VALID,26.7024,VALID,346,VALID,1.77383,
2009-11-29, 01:15:04,VALID,1002.54,VALID,0,VALID,83.2082,VALID,0,VALID,26.7414,VALID,353,VALID,1.49805,
2009-11-29, 01:16:04,VALID,1002.52,VALID,0,VALID,83.1243,VALID,0,VALID,26.7824,VALID,354,VALID,1.48945,
2009-11-29, 01:17:04,VALID,1002.48,VALID,0,VALID,83.1243,VALID,0,VALID,26.7609,VALID,351,VALID,1.16289,
2009-11-29, 01:18:04,VALID,1002.48,VALID,0,VALID,83.1243,VALID,0,VALID,26.7609,VALID,358,VALID,1.22187,
2009-11-29, 01:19:04,VALID,1002.44,VALID,0,VALID,82.987,VALID,0,VALID,26.7824,VALID,359,VALID,1.20391,
2009-11-29, 01:20:04,VALID,1002.45,VALID,0,VALID,82.9259,VALID,0,VALID,26.7609,VALID,344,VALID,1.61484,
2009-11-29, 01:21:04,VALID,1002.4,VALID,0,VALID,83.048,VALID,0,VALID,26.7609,VALID,305,VALID,1.06602,
2009-11-29, 01:22:04,VALID,1002.39,VALID,0,VALID,83.0022,VALID,0,VALID,26.7824,VALID,349,VALID,1.41562,
2009-11-29, 01:23:04,VALID,1002.38,VALID,0,VALID,83.1929,VALID,0,VALID,26.7414,VALID,351,VALID,0.596484,
2009-11-29, 01:24:04,VALID,1002.36,VALID,0,VALID,83.109,VALID,0,VALID,26.7414,VALID,350,VALID,1.73164,
2009-11-29, 01:25:04,VALID,1002.37,VALID,0,VALID,83.2616,VALID,0,VALID,26.7414,VALID,325,VALID,0.364844,
2009-11-29, 01:26:04,VALID,1002.31,VALID,0,VALID,83.3531,VALID,0,VALID,26.7434,VALID,351,VALID,0.435156,
2009-11-29, 01:27:04,VALID,1002.29,VALID,0,VALID,83.2616,VALID,0,VALID,26.7219,VALID,331,VALID,0.502344,
2009-11-29, 01:28:04,VALID,1002.26,VALID,0,VALID,83.3379,VALID,0,VALID,26.7434,VALID,353,VALID,0.927734,
2009-11-29, 01:29:04,VALID,1002.24,VALID,0,VALID,83.4676,VALID,0,VALID,26.7239,VALID,8,VALID,1.59375,
2009-11-29, 01:30:04,VALID,1002.19,VALID,0,VALID,83.376,VALID,0,VALID,26.683,VALID,340,VALID,1.40977,
2009-11-29, 01:31:04,VALID,1002.14,VALID,0,VALID,83.4676,VALID,0,VALID,26.7045,VALID,4,VALID,0.607813,
2009-11-29, 01:32:04,VALID,1002.09,VALID,0,VALID,83.4905,VALID,0,VALID,26.683,VALID,359,VALID,1.24102,
2009-11-29, 01:33:04,VALID,1002.05,VALID,0,VALID,83.4294,VALID,0,VALID,26.7239,VALID,351,VALID,0.687891,
2009-11-29, 01:34:04,VALID,1002.04,VALID,0,VALID,83.4523,VALID,0,VALID,26.683,VALID,355,VALID,0.7,
2009-11-29, 01:35:04,VALID,1002.02,VALID,0,VALID,83.46,VALID,0,VALID,26.685,VALID,343,VALID,1.1832,
2009-11-29, 01:36:04,VALID,1001.95,VALID,0,VALID,83.5896,VALID,0,VALID,26.6635,VALID,356,VALID,0.448438,
2009-11-29, 01:37:04,VALID,1001.93,VALID,0,VALID,83.6964,VALID,0,VALID,26.644,VALID,347,VALID,0.445313,
2009-11-29, 01:38:04,VALID,1001.88,VALID,0,VALID,83.8109,VALID,0,VALID,26.6245,VALID,5,VALID,0.892187,
2009-11-29, 01:39:04,VALID,1001.89,VALID,0,VALID,83.727,VALID,0,VALID,26.6265,VALID,348,VALID,1.13789,
2009-11-29, 01:40:04,VALID,1001.89,VALID,0,VALID,83.7575,VALID,0,VALID,26.6245,VALID,351,VALID,0.897266,
2009-11-29, 01:41:04,VALID,1001.87,VALID,0,VALID,83.7346,VALID,0,VALID,26.5855,VALID,345,VALID,1.12422,
2009-11-29, 01:42:04,VALID,1001.86,VALID,0,VALID,83.7804,VALID,0,VALID,26.5855,VALID,357,VALID,1.20273,
2009-11-29, 01:43:04,VALID,1001.89,VALID,0,VALID,83.788,VALID,0,VALID,26.5855,VALID,341,VALID,0.951563,
2009-11-29, 01:44:04,VALID,1001.9,VALID,0,VALID,83.9024,VALID,0,VALID,26.5661,VALID,341,VALID,0.736719,
2009-11-29, 01:45:04,VALID,1001.95,VALID,0,VALID,83.9406,VALID,0,VALID,26.5661,VALID,351,VALID,0.608594,
2009-11-29, 01:46:04,VALID,1001.95,VALID,0,VALID,83.9482,VALID,0,VALID,26.5661,VALID,345,VALID,1.0082,
2009-11-29, 01:47:04,VALID,1001.93,VALID,0,VALID,83.9635,VALID,0,VALID,26.5466,VALID,337,VALID,0.825781,
2009-11-29, 01:48:04,VALID,1001.95,VALID,0,VALID,84.0321,VALID,0,VALID,26.5661,VALID,350,VALID,1.02617,
2009-11-29, 01:49:04,VALID,1001.94,VALID,0,VALID,83.9482,VALID,0,VALID,26.5466,VALID,313,VALID,1.3625,
2009-11-29, 01:50:04,VALID,1001.93,VALID,0,VALID,83.849,VALID,0,VALID,26.5466,VALID,352,VALID,1.82656,
2009-11-29, 01:51:04,VALID,1001.96,VALID,0,VALID,83.8948,VALID,0,VALID,26.5466,VALID,348,VALID,0.961719,
2009-11-29, 01:52:04,VALID,1001.92,VALID,0,VALID,83.9482,VALID,0,VALID,26.5271,VALID,343,VALID,1.34219,
2009-11-29, 01:53:04,VALID,1001.91,VALID,0,VALID,84.0397,VALID,0,VALID,26.5271,VALID,354,VALID,0.874219,
2009-11-29, 01:54:04,VALID,1001.89,VALID,0,VALID,84.2228,VALID,0,VALID,26.4901,VALID,346,VALID,0.994531,
2009-11-29, 01:55:04,VALID,1001.87,VALID,0,VALID,84.2915,VALID,0,VALID,26.4707,VALID,353,VALID,1.33828,
2009-11-29, 01:56:04,VALID,1001.87,VALID,0,VALID,84.4593,VALID,0,VALID,26.4512,VALID,357,VALID,0.794141,
2009-11-29, 01:57:04,VALID,1001.88,VALID,0,VALID,84.5509,VALID,0,VALID,26.3907,VALID,356,VALID,0.665625,
2009-11-29, 01:58:04,VALID,1001.87,VALID,0,VALID,84.7263,VALID,0,VALID,26.3518,VALID,7,VALID,0.707031,
2009-11-29, 01:59:04,VALID,1001.86,VALID,0,VALID,84.9628,VALID,0,VALID,26.3538,VALID,359,VALID,1.06445,
2009-11-29, 02:00:04,VALID,1001.88,VALID,0,VALID,85.123,VALID,0,VALID,26.2953,VALID,354,VALID,1.22383,
2009-11-29, 02:01:04,VALID,1001.9,VALID,0,VALID,85.2985,VALID,0,VALID,26.2544,VALID,345,VALID,0.821484,
2009-11-29, 02:02:04,VALID,1001.94,VALID,0,VALID,85.535,VALID,0,VALID,26.1959,VALID,357,VALID,0.971875,
2009-11-29, 02:03:04,VALID,1001.98,VALID,0,VALID,85.6189,VALID,0,VALID,26.157,VALID,346,VALID,1.31562,
2009-11-29, 02:04:04,VALID,1001.96,VALID,0,VALID,85.6113,VALID,0,VALID,26.157,VALID,352,VALID,1.26016,
2009-11-29, 02:05:04,VALID,1001.98,VALID,0,VALID,85.5579,VALID,0,VALID,26.1959,VALID,357,VALID,0.794531,
2009-11-29, 02:06:04,VALID,1001.98,VALID,0,VALID,85.596,VALID,0,VALID,26.1765,VALID,288,VALID,0.521094,
2009-11-29, 02:07:04,VALID,1001.99,VALID,0,VALID,85.6342,VALID,0,VALID,26.157,VALID,321,VALID,0.796484,
2009-11-29, 02:08:04,VALID,1001.96,VALID,0,VALID,85.7105,VALID,0,VALID,26.157,VALID,333,VALID,0.975391,
2009-11-29, 02:09:04,VALID,1001.97,VALID,0,VALID,85.7181,VALID,0,VALID,26.157,VALID,301,VALID,0.884766,
2009-11-29, 02:10:04,VALID,1001.97,VALID,0,VALID,85.741,VALID,0,VALID,26.1375,VALID,360,VALID,0.917578,
2009-11-29, 02:11:04,VALID,1001.96,VALID,0,VALID,85.7868,VALID,0,VALID,26.1375,VALID,338,VALID,0.345313,
2009-11-29, 02:12:04,VALID,1001.96,VALID,0,VALID,85.8859,VALID,0,VALID,26.118,VALID,284,VALID,0.969141,
2009-11-29, 02:13:04,VALID,1001.96,VALID,0,VALID,85.9088,VALID,0,VALID,26.0985,VALID,341,VALID,0.802734,
2009-11-29, 02:14:04,VALID,1001.97,VALID,0,VALID,85.8554,VALID,0,VALID,26.0985,VALID,290,VALID,0.770312,
2009-11-29, 02:15:04,VALID,1002,VALID,0,VALID,85.9622,VALID,0,VALID,26.0985,VALID,289,VALID,0.893359,
2009-11-29, 02:16:04,VALID,1002,VALID,0,VALID,85.9775,VALID,0,VALID,26.0791,VALID,295,VALID,0.475781,
2009-11-29, 02:17:04,VALID,1002.02,VALID,0,VALID,86.0767,VALID,0,VALID,26.0791,VALID,357,VALID,0.316016,
2009-11-29, 02:18:04,VALID,1002.01,VALID,0,VALID,86.1835,VALID,0,VALID,26.0596,VALID,303,VALID,0.530859,
2009-11-29, 02:19:04,VALID,1001.97,VALID,0,VALID,86.1606,VALID,0,VALID,26.0596,VALID,323,VALID,0.379687,
2009-11-29, 02:20:04,VALID,1001.95,VALID,0,VALID,86.1606,VALID,0,VALID,26.0401,VALID,286,VALID,0.988672,
2009-11-29, 02:21:04,VALID,1001.92,VALID,0,VALID,86.2674,VALID,0,VALID,26.0401,VALID,339,VALID,0.643359,
2009-11-29, 02:22:04,VALID,1001.94,VALID,0,VALID,86.4886,VALID,0,VALID,25.9797,VALID,339,VALID,0.695313,
2009-11-29, 02:23:04,VALID,1001.92,VALID,0,VALID,86.5802,VALID,0,VALID,25.9817,VALID,352,VALID,0.283594,
2009-11-29, 02:24:04,VALID,1001.94,VALID,0,VALID,86.6183,VALID,0.100563,VALID,25.9817,VALID,299,VALID,0.699609,
2009-11-29, 02:25:04,VALID,1001.91,VALID,0,VALID,86.6946,VALID,0,VALID,25.9622,VALID,299,VALID,0.2375,
2009-11-29, 02:26:04,VALID,1001.95,VALID,0,VALID,86.7709,VALID,0,VALID,25.9232,VALID,299,VALID,0.401563,
2009-11-29, 02:27:04,VALID,1001.97,VALID,0,VALID,86.8472,VALID,0,VALID,25.9232,VALID,282,VALID,0.860156,
2009-11-29, 02:28:04,VALID,1001.93,VALID,0,VALID,86.7938,VALID,0,VALID,25.9427,VALID,299,VALID,0.576563,
2009-11-29, 02:29:04,VALID,1001.95,VALID,0,VALID,86.7861,VALID,0,VALID,25.9427,VALID,342,VALID,0.642969,
2009-11-29, 02:30:04,VALID,1001.98,VALID,0,VALID,86.9387,VALID,0,VALID,25.9038,VALID,310,VALID,0.269141,
2009-11-29, 02:31:04,VALID,1001.99,VALID,0,VALID,87.0074,VALID,0,VALID,25.9038,VALID,310,VALID,0.313672,
2009-11-29, 02:32:04,VALID,1001.99,VALID,0,VALID,87.1752,VALID,0,VALID,25.8843,VALID,342,VALID,0.425391,
2009-11-29, 02:33:04,VALID,1002.02,VALID,0,VALID,87.1523,VALID,0,VALID,25.8648,VALID,283,VALID,0.434375,
2009-11-29, 02:34:04,VALID,1002.04,VALID,0,VALID,87.1981,VALID,0,VALID,25.8648,VALID,283,VALID,0.247266,
2009-11-29, 02:35:04,VALID,1002.08,VALID,0,VALID,87.2591,VALID,0,VALID,25.8453,VALID,284,VALID,0.858594,
2009-11-29, 02:36:04,VALID,1002.1,VALID,0,VALID,87.2896,VALID,0,VALID,25.8648,VALID,277,VALID,0.235547,
2009-11-29, 02:37:04,VALID,1002.11,VALID,0,VALID,87.3888,VALID,0,VALID,25.8044,VALID,292,VALID,0.332812,
2009-11-29, 02:38:04,VALID,1002.1,VALID,0,VALID,87.5338,VALID,0,VALID,25.8064,VALID,353,VALID,0.594531,
2009-11-29, 02:39:04,VALID,1002.14,VALID,0,VALID,87.5414,VALID,0,VALID,25.8259,VALID,357,VALID,0.305469,
2009-11-29, 02:40:04,VALID,1002.11,VALID,0,VALID,87.549,VALID,0,VALID,25.8453,VALID,26,VALID,0.483594,
2009-11-29, 02:41:04,VALID,1002.1,VALID,0,VALID,87.7398,VALID,0,VALID,25.8453,VALID,355,VALID,0.549609,
2009-11-29, 02:42:04,VALID,1002.1,VALID,0,VALID,87.7092,VALID,0,VALID,25.8648,VALID,353,VALID,0.655469,
2009-11-29, 02:43:04,VALID,1002.07,VALID,0,VALID,87.549,VALID,0,VALID,25.9038,VALID,1,VALID,0.736719,
2009-11-29, 02:44:04,VALID,1002.09,VALID,0,VALID,87.5261,VALID,0,VALID,25.8823,VALID,354,VALID,0.488281,
2009-11-29, 02:45:04,VALID,1002.1,VALID,0,VALID,87.4727,VALID,0,VALID,25.9232,VALID,4,VALID,0.123438,
2009-11-29, 02:46:04,VALID,1002.1,VALID,0,VALID,87.488,VALID,0,VALID,25.9232,VALID,360,VALID,0.175,
2009-11-29, 02:47:04,VALID,1002.05,VALID,0,VALID,87.4575,VALID,0,VALID,25.9038,VALID,357,VALID,0.235547,
2009-11-29, 02:48:04,VALID,1002.06,VALID,0,VALID,87.4193,VALID,0,VALID,25.9232,VALID,359,VALID,0.711719,
2009-11-29, 02:49:04,VALID,1002.07,VALID,0,VALID,87.3965,VALID,0,VALID,25.8823,VALID,360,VALID,0.238281,
2009-11-29, 02:50:04,VALID,1002.07,VALID,0,VALID,87.4651,VALID,0,VALID,25.8843,VALID,357,VALID,0.491797,
2009-11-29, 02:51:04,VALID,1002.07,VALID,0,VALID,87.5414,VALID,0,VALID,25.8843,VALID,341,VALID,0.802344,
2009-11-29, 02:52:04,VALID,1002.08,VALID,0,VALID,87.6406,VALID,0,VALID,25.8648,VALID,352,VALID,0.993359,
2009-11-29, 02:53:04,VALID,1002.08,VALID,0,VALID,87.7626,VALID,0,VALID,25.8434,VALID,318,VALID,0.374609,
2009-11-29, 02:54:05,VALID,1002.05,VALID,0,VALID,87.8694,VALID,0,VALID,25.8044,VALID,358,VALID,0.417578,
2009-11-29, 02:55:05,VALID,1002.06,VALID,0,VALID,87.9152,VALID,0,VALID,25.8044,VALID,355,VALID,0.401953,
2009-11-29, 02:56:05,VALID,1002.05,VALID,0,VALID,87.9762,VALID,0,VALID,25.8259,VALID,345,VALID,0.905078,
2009-11-29, 02:57:05,VALID,1002.04,VALID,0,VALID,88.0449,VALID,0,VALID,25.8044,VALID,355,VALID,1.44141,
2009-11-29, 02:58:05,VALID,1002.02,VALID,0,VALID,87.9534,VALID,0,VALID,25.8259,VALID,353,VALID,1.29727,
2009-11-29, 02:59:05,VALID,1002,VALID,0,VALID,87.8847,VALID,0,VALID,25.8648,VALID,348,VALID,1.14336,
2009-11-29, 03:00:05,VALID,1001.98,VALID,0,VALID,87.7169,VALID,0,VALID,25.8843,VALID,1,VALID,1.31016,
2009-11-29, 03:01:05,VALID,1001.95,VALID,0,VALID,87.5795,VALID,0,VALID,25.9427,VALID,342,VALID,0.714844,
2009-11-29, 03:02:05,VALID,1001.91,VALID,0,VALID,87.3583,VALID,0,VALID,25.9622,VALID,347,VALID,0.667188,
2009-11-29, 03:03:05,VALID,1001.95,VALID,0,VALID,87.221,VALID,0,VALID,25.9817,VALID,347,VALID,0.783594,
2009-11-29, 03:04:05,VALID,1001.93,VALID,0,VALID,87.1752,VALID,0,VALID,25.9817,VALID,352,VALID,1.15313,
2009-11-29, 03:05:05,VALID,1001.93,VALID,0,VALID,87.1676,VALID,0,VALID,25.9817,VALID,2,VALID,0.749219,
2009-11-29, 03:06:05,VALID,1001.91,VALID,0,VALID,87.2134,VALID,0,VALID,25.9622,VALID,347,VALID,0.884375,
2009-11-29, 03:07:05,VALID,1001.91,VALID,0,VALID,87.2515,VALID,0,VALID,25.9817,VALID,351,VALID,0.459766,
2009-11-29, 03:08:05,VALID,1001.91,VALID,0,VALID,87.1752,VALID,0,VALID,25.9817,VALID,332,VALID,1.06133,
2009-11-29, 03:09:05,VALID,1001.89,VALID,0,VALID,87.1371,VALID,0,VALID,25.9602,VALID,342,VALID,0.919922,
2009-11-29, 03:10:05,VALID,1001.9,VALID,0,VALID,87.1981,VALID,0,VALID,25.9817,VALID,309,VALID,0.805859,
2009-11-29, 03:11:05,VALID,1001.86,VALID,0,VALID,87.1828,VALID,0.100563,VALID,25.9817,VALID,359,VALID,0.354297,
2009-11-29, 03:12:05,VALID,1001.87,VALID,0,VALID,87.16,VALID,0,VALID,25.9622,VALID,347,VALID,1.22656,
2009-11-29, 03:13:05,VALID,1001.85,VALID,0,VALID,87.0532,VALID,0,VALID,25.9602,VALID,357,VALID,1.11211,
2009-11-29, 03:14:05,VALID,1001.83,VALID,0,VALID,86.954,VALID,0.100563,VALID,25.9797,VALID,240,VALID,0.762109,
2009-11-29, 03:15:05,VALID,1001.83,VALID,0,VALID,86.9769,VALID,0,VALID,25.9992,VALID,345,VALID,0.644141,
2009-11-29, 03:16:05,VALID,1001.83,VALID,0,VALID,86.8777,VALID,0,VALID,26.0206,VALID,312,VALID,0.916016,
2009-11-29, 03:17:05,VALID,1001.81,VALID,0,VALID,86.7633,VALID,0,VALID,26.0401,VALID,318,VALID,0.942578,
2009-11-29, 03:18:05,VALID,1001.8,VALID,0,VALID,86.6946,VALID,0,VALID,26.0206,VALID,352,VALID,1.1918,
2009-11-29, 03:19:05,VALID,1001.77,VALID,0,VALID,86.7251,VALID,0,VALID,26.0206,VALID,9,VALID,0.795703,
2009-11-29, 03:20:05,VALID,1001.74,VALID,0,VALID,86.6946,VALID,0,VALID,26.0012,VALID,352,VALID,1.38594,
2009-11-29, 03:21:05,VALID,1001.76,VALID,0,VALID,86.7022,VALID,0,VALID,25.9992,VALID,348,VALID,0.557422,
2009-11-29, 03:22:05,VALID,1001.8,VALID,0,VALID,86.7709,VALID,0,VALID,26.0012,VALID,39,VALID,0.505078,
2009-11-29, 03:23:05,VALID,1001.8,VALID,0,VALID,86.7861,VALID,0,VALID,25.9602,VALID,351,VALID,0.603516,
2009-11-29, 03:24:05,VALID,1001.83,VALID,0,VALID,86.8624,VALID,0,VALID,25.9602,VALID,358,VALID,0.36875,
2009-11-29, 03:25:05,VALID,1001.88,VALID,0,VALID,86.9311,VALID,0,VALID,25.9408,VALID,2,VALID,0.240625,
2009-11-29, 03:26:05,VALID,1001.87,VALID,0,VALID,86.9158,VALID,0,VALID,25.9622,VALID,296,VALID,0.991406,
2009-11-29, 03:27:05,VALID,1001.87,VALID,0,VALID,86.8929,VALID,0,VALID,25.9408,VALID,344,VALID,1.20898,
2009-11-29, 03:28:05,VALID,1001.89,VALID,0,VALID,86.8395,VALID,0,VALID,25.9622,VALID,301,VALID,1.0832,
2009-11-29, 03:29:05,VALID,1001.93,VALID,0,VALID,86.8319,VALID,0,VALID,25.9622,VALID,102,VALID,0.397266,
2009-11-29, 03:30:05,VALID,1001.91,VALID,0,VALID,86.9006,VALID,0,VALID,25.9427,VALID,277,VALID,0.799609,
2009-11-29, 03:31:05,VALID,1001.91,VALID,0,VALID,86.7709,VALID,0,VALID,25.9427,VALID,360,VALID,1.36406,
2009-11-29, 03:32:05,VALID,1001.88,VALID,0,VALID,86.7633,VALID,0,VALID,25.9213,VALID,336,VALID,0.245312,
2009-11-29, 03:33:05,VALID,1001.87,VALID,0,VALID,86.7861,VALID,0,VALID,25.9213,VALID,313,VALID,0.298047,
2009-11-29, 03:34:05,VALID,1001.84,VALID,0,VALID,86.7175,VALID,0,VALID,25.9427,VALID,355,VALID,0.948828,
2009-11-29, 03:35:05,VALID,1001.85,VALID,0,VALID,86.7099,VALID,0,VALID,25.9427,VALID,357,VALID,0.664453,
2009-11-29, 03:36:05,VALID,1001.86,VALID,0,VALID,86.7251,VALID,0,VALID,25.9213,VALID,359,VALID,0.716016,
2009-11-29, 03:37:05,VALID,1001.89,VALID,0,VALID,86.7861,VALID,0.100563,VALID,25.9232,VALID,356,VALID,0.553125,
2009-11-29, 03:38:05,VALID,1001.91,VALID,0,VALID,86.9006,VALID,0,VALID,25.8629,VALID,303,VALID,0.417188,
2009-11-29, 03:39:05,VALID,1001.93,VALID,0,VALID,86.954,VALID,0,VALID,25.8648,VALID,359,VALID,0.559375,
2009-11-29, 03:40:05,VALID,1001.92,VALID,0,VALID,87.0455,VALID,0,VALID,25.8239,VALID,351,VALID,0.484375,
2009-11-29, 03:41:05,VALID,1001.91,VALID,0,VALID,87.1523,VALID,0,VALID,25.8259,VALID,351,VALID,0.535547,
2009-11-29, 03:42:05,VALID,1001.94,VALID,0,VALID,87.1676,VALID,0,VALID,25.8064,VALID,351,VALID,0.363281,
2009-11-29, 03:43:05,VALID,1001.98,VALID,0,VALID,87.2744,VALID,0,VALID,25.8083,VALID,351,VALID,0.457812,
2009-11-29, 03:44:05,VALID,1001.97,VALID,0,VALID,87.3659,VALID,0,VALID,25.7869,VALID,347,VALID,0.205469,
2009-11-29, 03:45:05,VALID,1002,VALID,0,VALID,87.4804,VALID,0,VALID,25.7674,VALID,296,VALID,0.663672,